FLOCK 4Y 1

导读

FLOCK 4Y 1是美国Planet公司Flock 4y星群中的SuperDove遥感卫星,于2023年1月3日搭乘SpaceX猎鹰9号火箭,在卡纳维拉尔角Transporter-6拼车任务中发射升空。作为新一代超高分辨率光学遥感卫星,它配备多光谱传感器,可提供8个光谱波段的对地观测数据,加入Planet在轨卫星 fleet,每日对全球地表成像,服务农业、林业、可持续发展等领域的监测与决策。

基本信息
目录编号:
55039
目录名称:
FLOCK 4Y 1
国际标识:
2023-001AG
轨道中心:
EARTH
卫星名称:
FLOCK 4Y 1
卫星全名:
--
卫星状态:
已陨落 最后检测时间 2024-12-24
发射日期:
2023-01-03 UTC
国别 :
美国 (US)
星等 :
--
轨道信息
数据来源 国际轨道数据
星历时间: 2024-12-19T02:20:45+0800
轨道信息已过期540天
半长轴: 6534.082km
偏心率: 0.0009653
轨道倾角: 97.385°
近地点辐角 258.517°
升交点赤经 62.964°
平近点角 101.505°
近地点: 149.639km
远地点: 162.255km
周期: 87.607分钟
每日圈数: 16.437127
详细信息
使用方式:
暂无